Regional Weather Roundup
Issued by NWS

Home | Current Version | Previous Version | Text Only | Print | Product List | Glossary On
Versions: 1 2 3 4 5 6 7 8 9 10 11 12 13 14 15 16 17 18 19 20 21 22 23 24 25 26 27 28 29 30 31 32 33 34 35 36 37 38 39 40 41 42 43 44 45 46 47 48 49 50
000
ASUS44 KMEG 192310
RWRTN
TENNESSEE HOURLY STATE WEATHER ROUNDUP
NATIONAL WEATHER SERVICE MEMPHIS TN
500 PM CST FRI DEC 19 2014

TNZ002-004-019-021-049-052-054-088>092-200000-
WEST TENNESSEE

CITY           SKY/WX    TMP DP  RH WIND       PRES   REMARKS
MEMPHIS INTL   LGT RAIN  44  35  70 E8        30.19F
NWS MEMPHIS      N/A     42 N/A N/A MISG        N/A
JACKSON        CLOUDY    42  31  64 NE7       30.22R
DYERSBURG      CLOUDY    39  21  48 NE9       30.24F WCI  33
UNION CITY     CLEAR     36  30  80 NE6       30.24S WCI  31
PARIS          MOCLDY    36  28  75 N3        30.25R
HUNTINGDON     CLOUDY    37  27  68 NE5       30.24R WCI  33
LEXINGTON      CLEAR     39  28  65 NE3       30.21S
SAVANNAH       PTCLDY    39  28  65 NE3       30.20F
$$

TNZ008-025-027-028-033-062-065-066-200000-
NORTH MIDDLE TENNESSEE

CITY           SKY/WX    TMP DP  RH WIND       PRES   REMARKS
NASHVILLE      MOCLDY    39  29  67 N8        30.24S WCI  33
CLARKSVILLE    CLEAR     37  29  72 CALM      30.25S
SMYRNA         CLOUDY    38  29  70 NE3       30.25S
COOKEVILLE     CLEAR     36  28  75 N3        30.20R
CROSSVILLE     CLOUDY    38  24  57 N5        30.18R WCI  34
$$

TNZ061-075-076-078-094-096-097-200000-
SOUTH MIDDLE TENNESSEE

CITY           SKY/WX    TMP DP  RH WIND       PRES   REMARKS
FAYETTEVILLE   CLEAR     37  27  65 MISG      30.20R
TULLAHOMA      CLEAR     36  27  69 N7        30.19S WCI  30
WINCHESTER     CLEAR     37  27  65 N6        30.19S WCI  33
MCMINNVILLE    CLEAR     37  28  70 CALM      30.20S
SHELBYVILLE    CLEAR     37  30  75 N6        30.22S WCI  33
$$

TNZ017-018-042-046-047-200000-
NORTHEAST TENNESSEE

CITY           SKY/WX    TMP DP  RH WIND       PRES   REMARKS
TRI CITIES     CLOUDY    39  26  59 N3        30.17S
ELIZABETHTON   CLEAR     36  25  64 CALM      30.15S
$$

TNZ012-013-036-069-073-074-200000-
CENTRAL EAST TENNESSEE

CITY           SKY/WX    TMP DP  RH WIND       PRES   REMARKS
KNOXVILLE      CLOUDY    42  26  53 N8        30.16F
OAK RIDGE      CLOUDY    43  26  51 NE5       30.19S
GATLINBURG     CLEAR     41  27  56 CALM      30.17R
MORRISTOWN     CLEAR     43  25  49 CALM      30.17S
$$

TNZ083-085-099-200000-
SOUTHEAST TENNESSEE

CITY           SKY/WX    TMP DP  RH WIND       PRES   REMARKS
CHATTANOOGA    CLOUDY    46  29  51 NE5       30.17R
$$

SKY/WX REPORTED AS FAIR MEANS FEW OR NO CLOUDS BELOW
12 THOUSAND FEET.




USA.gov is the U.S. government's official web portal to all federal, state and local government web resources and services.